Regional Weather Roundup
Issued by NWS

Home | Current Version | Previous Version | Text Only | Print | Product List | Glossary Off
Versions: 1 2 3 4 5 6 7 8 9 10 11 12 13 14 15 16 17 18 19 20 21 22 23 24 25 26 27 28 29 30 31 32 33 34 35 36 37 38 39 40 41 42 43 44 45 46 47 48 49 50

000
ASUS43 KBIS 270301
RWRND

NORTH DAKOTA REGIONAL WEATHER ROUNDUP
NATIONAL WEATHER SERVICE BISMARCK ND
1000 PM CDT TUE MAY 26 2015

NOTE: "FAIR" INDICATES FEW OR NO CLOUDS BELOW 12,000 FEET WITH NO
SIGNIFICANT WEATHER AND/OR OBSTRUCTIONS TO VISIBILITY.


NDZ001>003-009>011-017-270400-
NORTHWEST NORTH DAKOTA

CITY           SKY/WX    TMP DP  RH WIND       PRES   REMARKS
WILLISTON      PTCLDY    69  43  38 NE6       29.88R
MINOT          PTCLDY    64  46  52 S9        29.86S
MINOT AFB      PTCLDY    62  57  86 SW7       29.84S
$$

NDZ018>021-031>035-040>046-270400-
SOUTHWEST NORTH DAKOTA

CITY           SKY/WX    TMP DP  RH WIND       PRES   REMARKS
BISMARCK       CLEAR     66  51  58 W5        29.89R
DICKINSON      PTCLDY    57  45  64 S6        29.91R
GARRISON         N/A     65  49  56 NE6       29.89R
HETTINGER ARPT PTCLDY    56  48  74 CALM      29.95R
$$

NDZ004>008-012>016-024-026-027-054-270400-
NORTHEAST NORTH DAKOTA

CITY           SKY/WX    TMP DP  RH WIND       PRES   REMARKS
GRAND FORKS    PTCLDY    64  50  60 W6        29.74R
GRND FRKS AFB  MOCLDY    64  54  68 W3        29.76R
DEVILS LAKE    PTCLDY    66  45  45 W9        29.82R
$$

NDZ022-023-025-028>030-036>039-047>053-270400-
SOUTHEAST NORTH DAKOTA

CITY           SKY/WX    TMP DP  RH WIND       PRES   REMARKS
FARGO          PTCLDY    66  53  63 SW8       29.77R
JAMESTOWN      PTCLDY    66  46  48 NW10      29.81S
$$



USA.gov is the U.S. government's official web portal to all federal, state and local government web resources and services.